Time,TemperatureF,DewpointF,PressureIn,WindDirection,WindDirectionDegrees,WindSpeedMPH,WindSpeedGustMPH,Humidity,HourlyPrecipIn,Conditions,Clouds,dailyrainin,SoftwareType,DateUTC
2013-07-10 00:55:00,79.1,72.4,30.05,ESE,117,0.0,4.0,80,0.00,,BKN200,0.00,VWS V14.00,2013-07-10 04:55:00,
2013-07-10 01:55:00,78.4,72.4,30.03,ESE,122,0.0,3.0,82,0.00,,BKN200,0.00,VWS V14.00,2013-07-10 05:55:00,
2013-07-10 02:55:00,73.3,70.8,30.03,ESE,113,0.0,9.0,92,0.08,,BKN250,0.49,VWS V14.00,2013-07-10 06:55:00,
2013-07-10 03:55:00,73.8,72.3,30.02,ESE,117,0.0,12.0,95,0.09,,RA,0.82,VWS V14.00,2013-07-10 07:55:00,
2013-07-10 04:55:00,71.1,69.6,30.04,NNE,12,0.0,6.0,95,0.05,,RA,1.00,VWS V14.00,2013-07-10 08:55:00,
2013-07-10 05:55:00,71.2,70.0,30.02,NNE,12,0.0,2.0,96,0.00,,BKN100,1.02,VWS V14.00,2013-07-10 09:55:00,
2013-07-10 06:55:00,71.5,70.3,30.02,NNE,12,0.0,2.0,96,0.00,,OVC160,1.02,VWS V14.00,2013-07-10 10:55:00,
2013-07-10 07:55:00,72.6,71.4,30.04,NNE,12,0.0,2.0,96,0.00,,BKN160,1.02,VWS V14.00,2013-07-10 11:55:00,
2013-07-10 08:55:00,75.0,74.1,30.06,NNE,12,0.0,0.0,97,0.00,,BKN160,1.02,VWS V14.00,2013-07-10 12:55:00,
2013-07-10 09:55:00,77.5,74.3,30.06,ENE,67,2.0,5.0,90,0.00,,BKN230,1.02,VWS V14.00,2013-07-10 13:55:00,
2013-07-10 10:55:00,77.2,73.7,30.06,ESE,111,2.0,7.0,89,0.00,,BKN230,1.03,VWS V14.00,2013-07-10 14:55:00,
2013-07-10 11:55:00,79.0,73.8,30.06,East,85,3.0,10.0,84,0.00,,BKN180,1.03,VWS V14.00,2013-07-10 15:55:00,
2013-07-10 12:55:00,80.0,74.0,30.05,SSE,153,0.0,12.0,82,0.00,,-RA,1.03,VWS V14.00,2013-07-10 16:55:00,
2013-07-10 13:55:00,80.6,74.6,30.03,East,94,6.0,12.0,82,0.00,,BKN160,1.03,VWS V14.00,2013-07-10 17:55:00,
2013-07-10 14:55:00,81.4,75.4,30.02,SE,132,3.0,10.0,82,0.00,,BKN250,1.03,VWS V14.00,2013-07-10 18:55:00,
2013-07-10 15:55:00,82.4,74.9,30.02,East,98,4.0,11.0,78,0.00,,BKN250,1.03,VWS V14.00,2013-07-10 19:55:00,
2013-07-10 16:55:00,83.8,75.4,30.00,SE,133,5.0,8.0,76,0.00,,BKN250,1.03,VWS V14.00,2013-07-10 20:55:00,
2013-07-10 17:55:00,83.7,75.7,29.99,ESE,117,5.0,10.0,77,0.00,,BKN250,1.03,VWS V14.00,2013-07-10 21:55:00,
2013-07-10 18:55:00,82.6,75.1,29.98,SSE,161,3.0,12.0,78,0.00,,BKN250,1.03,VWS V14.00,2013-07-10 22:55:00,
2013-07-10 19:55:00,81.0,74.6,29.99,ESE,123,0.0,8.0,81,0.00,,BKN250,1.03,VWS V14.00,2013-07-10 23:55:00,
2013-07-10 20:55:00,80.4,74.4,29.99,SE,126,0.0,10.0,82,0.00,,BKN250,1.03,VWS V14.00,2013-07-11 00:55:00,
2013-07-10 21:55:00,80.3,74.7,30.00,SE,136,0.0,10.0,83,0.00,,BKN250,1.03,VWS V14.00,2013-07-11 01:55:00,
2013-07-10 22:55:00,80.4,75.1,30.02,ESE,123,1.0,7.0,84,0.00,,SCT250,1.03,VWS V14.00,2013-07-11 02:55:00,
2013-07-10 23:57:00,80.7,74.7,30.02,SE,142,0.0,9.0,82,0.00,,SCT250,0.00,VWS V14.00,2013-07-11 03:57:00,